Date String (YYYY-MM-DD hh:mm:ss) UTC,Instrument flags,absolute air pressure of the measurement (hPa),sample flow rate (lpm),inlet stack bypass flow (lpm),air temperature of the measurement (°C),ambient temperature measured by the external sensor (°C),aerosol sample conditioner tube jacket temperature (°C),OPC LED temperature (°C),internal box temperature (°C),relative humidity of the measurement (%),span deviation,mass concentration of particles derived from Lorenz-Mie calculation of OPC scattering (μg/m³),mass concentration of particles derived from Lorenz-Mie calculation of OPC scattering (μg/m³),mass concentration of particles derived from Lorenz-Mie calculation of OPC scattering (μg/m³)
DateTimeUTC,F1_M11,P_M11,Q1_M11,Q2_M11,T1_M11,T2_M11,T3_M11,T4_M11,T5_M11,U1_M11,ZSPAN_M11,X0_M11,X2_M11,X1_M11
2024-02-08 08:00:00,SystemResetWarning,0811.2,4.99,000.00,018.5,017.9,000.0,026.8,020.0,12.7,0000.0,0003.55,0000.29,0000.14
2024-02-08 08:01:00,SystemResetWarning,0811.2,5.01,000.00,018.5,017.8,000.0,026.8,020.0,12.7,0000.0,0003.09,0000.30,0000.15
2024-02-08 08:02:00,SystemResetWarning,0811.3,5.01,000.00,018.5,017.8,000.0,026.8,020.0,12.7,0000.0,0002.78,0000.26,0000.15
2024-02-08 08:03:00,SystemResetWarning,0811.2,5.00,000.00,018.5,017.8,000.0,026.8,020.0,12.8,0000.0,0002.60,0000.26,0000.16
2024-02-08 08:04:00,SystemResetWarning,0811.1,4.99,000.00,018.4,017.8,000.0,026.8,020.0,12.9,0000.0,0003.19,0000.28,0000.17
2024-02-08 08:05:00,SystemResetWarning,0811.1,5.00,000.00,018.4,017.8,000.0,026.8,020.0,13.0,0000.0,0003.39,0000.30,0000.17
2024-02-08 08:06:00,SystemResetWarning,0811.2,5.00,000.00,018.4,017.8,000.0,026.8,020.0,12.7,0000.0,0003.41,0000.31,0000.18
2024-02-08 08:07:00,SystemResetWarning,0811.1,5.00,000.00,018.4,017.8,000.0,026.8,020.0,12.9,0000.0,0003.42,0000.32,0000.20
2024-02-08 08:08:00,SystemResetWarning,0811.1,5.00,000.00,018.4,017.8,000.0,026.8,020.0,13.0,0000.0,0001.92,0000.33,0000.22
2024-02-08 08:09:00,SystemResetWarning,0811.1,5.00,000.00,018.4,017.8,000.0,026.8,020.0,13.0,0000.0,0001.34,0000.37,0000.24
2024-02-08 08:10:00,SystemResetWarning,0811.2,5.01,000.00,018.4,017.8,000.0,026.8,020.0,13.3,0000.0,0001.39,0000.39,0000.26
2024-02-08 08:11:00,SystemResetWarning,0811.1,5.00,000.00,018.4,017.8,000.0,026.8,020.0,13.3,0000.0,0001.36,0000.37,0000.25
2024-02-08 08:12:00,SystemResetWarning,0811.2,5.00,000.00,018.4,017.8,000.0,026.8,020.0,13.6,0000.0,0001.34,0000.37,0000.24
2024-02-08 08:13:00,SystemResetWarning,0811.1,4.99,000.00,018.4,017.8,000.0,026.8,020.0,13.4,0000.0,0001.34,0000.37,0000.25
2024-02-08 08:14:00,SystemResetWarning,0811.2,5.00,000.00,018.4,017.8,000.0,026.8,020.0,13.2,0000.0,0001.32,0000.37,0000.25
2024-02-08 08:15:00,SystemResetWarning,0811.1,5.00,000.00,018.4,017.8,000.0,026.8,020.0,13.4,0000.0,0000.83,0000.35,0000.25
2024-02-08 08:16:00,SystemResetWarning,0811.1,4.99,000.00,018.4,017.8,000.0,026.8,020.0,13.6,0000.0,0000.57,0000.36,0000.26
2024-02-08 08:17:00,SystemResetWarning,0811.2,5.02,000.00,018.4,017.8,000.0,026.8,020.0,14.0,0000.0,0000.59,0000.38,0000.27
2024-02-08 08:18:00,SystemResetWarning,0811.2,5.01,000.00,018.5,017.8,000.0,026.8,020.0,14.4,0000.0,0000.58,0000.37,0000.26
2024-02-08 08:19:00,SystemResetWarning,0811.1,4.99,000.00,018.5,017.8,000.0,026.8,020.0,14.7,0000.0,0000.55,0000.35,0000.24
2024-02-08 08:20:00,SystemResetWarning,0811.2,4.99,000.00,018.5,017.8,000.0,026.8,020.0,14.7,0000.0,0001.10,0000.35,0000.23
2024-02-08 08:21:00,SystemResetWarning,0811.2,5.00,000.00,018.5,017.8,000.0,026.8,020.0,14.9,0000.0,0001.23,0000.32,0000.20
2024-02-08 08:22:00,SystemResetWarning,0811.3,5.01,000.00,018.5,017.8,000.0,026.8,020.0,14.7,0000.0,0001.26,0000.32,0000.19
2024-02-08 08:23:00,SystemResetWarning,0811.3,5.00,000.00,018.5,017.8,000.0,026.8,020.0,14.0,0000.0,0001.25,0000.31,0000.19
2024-02-08 08:24:00,SystemResetWarning,0811.3,5.01,000.00,018.5,017.8,000.0,026.8,020.0,14.2,0000.0,0001.25,0000.31,0000.18
2024-02-08 08:25:00,SystemResetWarning,0811.2,5.01,000.00,018.5,017.8,000.0,026.8,020.0,14.2,0000.0,0001.31,0000.33,0000.16
2024-02-08 08:26:00,SystemResetWarning,0811.2,4.99,000.00,018.5,017.8,000.0,026.8,020.0,13.9,0000.0,0001.31,0000.33,0000.15
2024-02-08 08:27:00,SystemResetWarning,0811.1,4.99,000.00,018.5,017.8,000.0,026.8,020.0,14.1,0000.0,0001.28,0000.31,0000.14
2024-02-08 08:28:00,SystemResetWarning,0811.1,5.00,000.00,018.5,017.8,000.0,026.8,020.0,13.7,0000.0,0001.28,0000.31,0000.13
2024-02-08 08:29:00,SystemResetWarning,0811.2,5.00,000.00,018.5,017.8,000.0,026.8,020.1,13.7,0000.0,0001.44,0000.30,0000.12
2024-02-08 08:30:00,SystemResetWarning,0811.2,5.00,000.00,018.5,017.9,000.0,026.8,020.1,13.8,0000.0,0001.89,0000.31,0000.11
2024-02-08 08:31:00,SystemResetWarning,0811.1,5.01,000.00,018.5,017.9,000.0,026.8,020.0,13.7,0000.0,0001.43,0000.28,0000.10
2024-02-08 08:32:00,SystemResetWarning,0811.2,5.00,000.00,018.5,017.9,000.0,026.8,020.1,13.7,0000.0,0001.15,0000.26,0000.09
2024-02-08 08:33:00,SystemResetWarning,0811.2,5.00,000.00,018.5,017.9,000.0,026.8,020.1,14.0,0000.0,0001.11,0000.23,0000.09
2024-02-08 08:34:00,SystemResetWarning,0811.1,4.99,000.00,018.5,017.9,000.0,026.8,020.1,13.9,0000.0,0001.17,0000.26,0000.09
2024-02-08 08:35:00,SystemResetWarning,0811.0,4.99,000.00,018.5,017.9,000.0,026.8,020.1,14.1,0000.0,0001.49,0000.28,0000.10
2024-02-08 08:36:00,SystemResetWarning,0811.0,5.00,000.00,018.5,017.9,000.0,026.8,020.1,13.5,0000.0,0001.56,0000.27,0000.10
2024-02-08 08:37:00,SystemResetWarning,0811.2,5.00,000.00,018.5,017.9,000.0,026.8,020.1,13.7,0000.0,0001.56,0000.27,0000.11
2024-02-08 08:38:00,SystemResetWarning,0811.1,5.00,000.00,018.5,017.8,000.0,026.8,020.1,13.4,0000.0,0001.54,0000.26,0000.11
2024-02-08 08:39:00,SystemResetWarning,0811.2,5.01,000.00,018.5,017.8,000.0,026.8,020.0,13.1,0000.0,0001.53,0000.25,0000.11
2024-02-08 08:40:00,SystemResetWarning,0811.2,5.00,000.00,018.4,017.8,000.0,026.8,020.0,13.0,0000.0,0001.35,0000.25,0000.10
2024-02-08 08:41:00,SystemResetWarning,0811.2,4.98,000.00,018.4,017.8,000.0,026.8,020.1,13.3,0000.0,0001.02,0000.26,0000.11
2024-02-08 08:42:00,SystemResetWarning,0811.1,4.99,000.00,018.4,017.8,000.0,026.8,020.0,13.7,0000.0,0001.01,0000.27,0000.11
2024-02-08 08:43:00,SystemResetWarning,0811.2,5.01,000.00,018.4,017.8,000.0,026.8,020.1,14.0,0000.0,0000.93,0000.27,0000.11
2024-02-08 08:44:00,SystemResetWarning,0811.3,5.01,000.00,018.4,017.8,000.0,026.8,020.0,13.5,0000.0,0000.93,0000.27,0000.11
2024-02-08 08:45:00,SystemResetWarning,0811.3,5.01,000.00,018.4,017.8,000.0,026.8,020.0,13.7,0000.0,0001.23,0000.25,0000.11
2024-02-08 08:46:00,SystemResetWarning,0811.3,5.01,000.00,018.4,017.8,000.0,026.8,020.0,13.8,0000.0,0001.70,0000.22,0000.11
2024-02-08 08:47:00,SystemResetWarning,0811.3,4.99,000.00,018.4,017.8,000.0,026.8,020.0,13.7,0000.0,0001.74,0000.21,0000.11
2024-02-08 08:48:00,SystemResetWarning,0811.2,4.99,000.00,018.4,017.8,000.0,026.8,020.1,13.6,0000.0,0001.90,0000.21,0000.10
2024-02-08 08:49:00,SystemResetWarning,0811.2,5.00,000.00,018.4,017.8,000.0,026.8,020.1,14.0,0000.0,0001.89,0000.21,0000.10
2024-02-08 08:50:00,SystemResetWarning,0811.2,5.00,000.00,018.4,017.8,000.0,026.8,020.1,14.4,0000.0,0001.91,0000.22,0000.10
2024-02-08 08:51:00,SystemResetWarning,0811.3,5.01,000.00,018.4,017.8,000.0,026.8,020.1,14.0,0000.0,0001.88,0000.21,0000.10
2024-02-08 08:52:00,SystemResetWarning,0811.3,5.00,000.00,018.4,017.8,000.0,026.8,020.1,14.1,0000.0,0002.97,0000.18,0000.09
2024-02-08 08:53:00,SystemResetWarning,0811.3,5.00,000.00,018.4,017.8,000.0,026.8,020.1,14.1,0000.0,0003.10,0000.17,0000.09
2024-02-08 08:54:00,SystemResetWarning,0811.2,5.01,000.00,018.4,017.8,000.0,026.8,020.0,14.0,0000.0,0003.18,0000.19,0000.09
2024-02-08 08:55:00,SystemResetWarning,0811.3,4.99,000.00,018.4,017.8,000.0,026.8,020.1,14.3,0000.0,0003.35,0000.23,0000.09
2024-02-08 08:56:00,SystemResetWarning,0811.3,4.99,000.00,018.4,017.8,000.0,026.8,020.1,14.4,0000.0,0002.92,0000.23,0000.09
2024-02-08 08:57:00,SystemResetWarning,0811.5,4.99,000.00,018.4,017.8,000.0,026.8,020.1,14.2,0000.0,0002.38,0000.26,0000.09
2024-02-08 08:58:00,SystemResetWarning,0811.5,5.01,000.00,018.5,017.9,000.0,026.8,020.1,14.2,0000.0,0002.15,0000.24,0000.09
2024-02-08 08:59:00,SystemResetWarning,0811.6,5.01,000.00,018.5,017.9,000.0,026.8,020.1,14.2,0000.0,0002.04,0000.24,0000.09
